Location: Shenandoah County Park
(38.9356°N, 78.4524°W)
Time: 10:40:05
(UTC-04:00)

Vanguard 1 Rocket - Pass Details

Date: 15 February 2023
Orbit: 652 x 4223 km, 34.3° (Epoch: 24 March)

Event Time Altitude Azimuth Distance (km) Brightness Sun altitude
Rises 07:58:49 0° 208° (SSW) 2,978 10.0 8.9°
Reaches altitude 10° 08:01:30 10° 189° (S) 2,185 9.6 9.4°
Maximum altitude 08:04:56 19° 143° (SE) 1,894 10.4 10.0°
Drops below altitude 10° 08:09:22 10° 99° (E) 2,917 11.9 10.8°
Sets 08:13:43 0° 84° (E) 4,432 12.0 11.6°
